Preview of NWS' New Version of Forecast
This preview is not operational and should not be used for support decisions.

Regional Weather Roundup (RWR)

Issued by National Weather Service (NWS)

                            
000
ASUS45 KBOU 222110
RWRCO 

WEATHER ROUNDUP FOR COLORADO
NATIONAL WEATHER SERVICE DENVER/BOULDER CO
200 PM MST FRI FEB 22 2019

NOTE: "FAIR" INDICATES FEW OR NO CLOUDS BELOW 12000 FEET WITH NO
SIGNIFICANT WEATHER AND/OR OBSTRUCTIONS TO VISIBILITY.

COZ001>005-013-030-031-222200-
...NORTHWEST COLORADO...
  
CITY           SKY/WX    TMP DP  RH WIND       PRES   REMARKS
CRAIG          LGT SNOW  21  16  81 W8        29.78R WCI  11          
HAYDEN         SNOW      20  15  81 W10       29.77R VSB 1/2 WCI   9  
MEEKER         LGT SNOW  25  18  74 NE7       29.74R WCI  17          
RANGELY        CLOUDY    26  15  63 NE8       29.81S WCI  17          
RABBIT EARS PA SNOW      18  16  93 NW6       29.63S VSB 1/2 WCI   9  
STEAMBOAT SPGS CLOUDY    22  17  83 SW7       29.72R WCI  13          
WALDEN         CLOUDY    19  12  73 NW5       29.67S WCI  13          
$$

COZ006>008-011-222200-
...WEST CENTRAL VALLEYS...
  
CITY           SKY/WX    TMP DP  RH WIND       PRES   REMARKS
GRAND JUNCTION LGT SNOW  32  30  92 NW12      29.72F VSB 3/4 WCI  23  
MONTROSE       CLOUDY    29  25  85 NW9       29.72F WCI  20          
EAGLE          CLOUDY    31  23  72 W5        29.69F WCI  26          
RIFLE          CLOUDY    33  27  78 CALM      29.71R                  
DELTA          PTSUNNY   35  30  83 CALM      29.71F                  
NUCLA          NOT AVBL                                               
$$

COZ017>023-064>068-222200-
...SOUTHWEST COLORADO...
  
CITY           SKY/WX    TMP DP  RH WIND       PRES   REMARKS
DURANGO        SNOW      29  29 100 W13       29.67S VSB 1/4 WCI  19  
CORTEZ         CLOUDY    33  29  85 SW8       29.67F WCI  26          
PAGOSA SPRINGS SNOW      30  30 100 CALM      29.64F VSB 1/2          
TELLURIDE      CLOUDY    27  18  69 SW3       29.64F                  
WOLF CREEK PAS CLOUDY    14  14 100 MISG      29.65F                  
$$

COZ009-010-012-014-032>034-037-058>063-222200-
...CENTRAL COLORADO...
  
CITY           SKY/WX    TMP DP  RH WIND       PRES   REMARKS
ASPEN          CLOUDY    31  20  63 N5        29.63S WCI  26          
BUENA VISTA    CLOUDY    31  22  71 S6        29.63F WCI  25          
COPPER MTN     LGT SNOW  19  12  73 SE12      29.60S VSB 1   WCI   7  
BERTHOUD PASS  CLOUDY    12   1  62 S14G21    29.62S WCI  -3          
COTTONWOOD PAS SNOW      25  25 100 SE13G21   29.61F VSB 1/2 WCI  13  
GUNNISON       LGT SNOW  27  24  89 NW9       29.65S VSB 1   WCI  18  
GRANBY         CLOUDY    27  19  72 NE3       29.65S                  
KREMMLING      CLOUDY    30  23  74 N7        29.67S WCI  23          
LEADVILLE      SNOW      20  18  92 S13       29.60S VSB 1/2 WCI   7  
MONARCH PASS     N/A     18  14  86 MISG      29.72F                  
SALIDA         CLOUDY    36  29  75 E6        29.70F                  
SUNLIGHT       LGT SNOW  18  14  86 S6        29.67S VSB 3/4 WCI   9  
WILKERSON PASS PTSUNNY   23  18  80 S7        29.66F WCI  15          
$$

COZ069>075-222200-
...SAN LUIS VALLEY/SANGRE DE CRISTO MOUNTAINS...
  
CITY           SKY/WX    TMP DP  RH WIND       PRES   REMARKS
ALAMOSA        FAIR      36  25  64 S25G36    29.65F                  
DEL NORTE      CLOUDY    31  24  76 N5        29.63F WCI  26          
LA VETA PASS   NOT AVBL                                               
SAGUACHE       PTSUNNY   34  27  75 CALM      29.65F                  
$$

COZ035-036-038>040-222200-
...NORTHERN COLORADO FRONT RANGE...
  
CITY           SKY/WX    TMP DP  RH WIND       PRES   REMARKS
DENVER INTL AP CLOUDY    27  25  92 E12       29.71F WCI  17          
AURORA         CLOUDY    29  27  89 E14       29.70F FOG     WCI  19  
FRONT RANGE AP FOG       27  27 100 E6        29.72F VSB 1/4 WCI  20  
ERIE MUNI ARPT CLOUDY    25  23  95 N9        29.81F FOG     WCI  15  
BOULDER MUN AP CLOUDY    25  23  93 N6        29.75F FOG     WCI  18  
CENTENNIAL     PTSUNNY   34  24  67 N17       29.68F WCI  23          
BROOMFIELD     FOG       25  23  93 N10       29.73F VSB 1   WCI  15  
FORT COLLINS   PTSUNNY   27  25  92 E10       29.76F WCI  17          
LONGMONT       CLOUDY    27  23  86 CALM      29.78F                  
$$

COZ041-046-047-076>085-087-088-222200-
...PIKES PEAK/PALMER DIVIDE AND SOUTHERN FOOTHILLS...
  
CITY           SKY/WX    TMP DP  RH WIND       PRES   REMARKS
COLO. SPRINGS  FAIR      40  22  48 S14       29.69F                  
A. F. ACADEMY  FAIR      38  23  54 S15       29.65F                  
SCHRIEVER AFB  NOT AVBL                                               
CHEYENNE MTN   PTSUNNY   33  22  64 SE10      29.62F WCI  25          
ELLICOTT         N/A    N/A N/A N/A MISG      29.69S                  
FALCON         FAIR      38  19  47 S12G17    29.69F                  
FORT CARSON    FAIR      41  21  45 S9        29.67F                  
LIMON          FAIR      41  25  53 S17G30    29.71F                  
MONUMENT HILL  FAIR      36  23  60 S12       29.67S                  
CANON CITY     NOT AVBL                                               
WALSENBURG     NOT AVBL                                               
TRINIDAD       FAIR      55  18  23 S31G43    29.62F                  
$$

COZ042>045-048>051-090-091-222200-
...NORTHEAST COLORADO...
  
CITY           SKY/WX    TMP DP  RH WIND       PRES   REMARKS
GREELEY ARPT   CLOUDY    25  22  88 NE5       29.79F WCI  19          
AKRON          FOG       26  26 100 E8        29.77F VSB<1/4 WCI  18  
BURLINGTON     CLOUDY    34  31  88 S16       29.79F WCI  24          
WRAY           CLOUDY    34  34 100 SE13      29.82F FOG     WCI  25  
YUMA           FOG       28  28 100 NE3       29.78F VSB<1/4          
STERLING       FOG      N/A N/A N/A N8        29.81F VSB 1/2          
HOLYOKE        FOG       34  32  93 SE6       29.84F VSB<1/4 WCI  29  
FORT MORGAN      N/A     24  22  93 NE6       29.80F FOG     WCI  17  
$$

COZ086-089-092>099-222200-
...SOUTHEAST COLORADO...
  
CITY           SKY/WX    TMP DP  RH WIND       PRES   REMARKS
PUEBLO         FAIR      46  27  47 VRB5      29.69F                  
LA JUNTA       FAIR      52  29  41 CALM      29.69F                  
LAMAR          FAIR      47  34  60 SE20G31   29.73F                  
SPRINGFIELD      N/A     44  32  62 S23       29.75F                  
$$